Content
SEND FEEDBACK

Daily
Averages
Monthly
Summary
United States of America

KANAB, UTAH


Home > North America > United States > Utah
Elevation: 4530 feet     Latitude: 37 06N     Longitude: 111 46W

WEATHER
 
SELECT A DAY
Number of Records: 194,777;   Date Range: 1/1/95 - 8/12/14
 
SHARE

PRINT THIS DATA

[ ← Previous Day ]
WEATHER ALMANAC - JANUARY 23, 2013
[ Next Day → ]
[ °C ]   °F
Weather ElementAverageHighLow
Temperature35 °F42.1 °F (2:53 pm)27 °F (4:53 am)
Dewpoint18 °F19.9 °F (11:53 am)16 °F (1:53 am)
Humidity50.6 %63 % (4:53 am)38 % (3:53 pm)
Barometer30.40 in30.47 in (10:53 am)30.35 in (3:53 pm)
Wind Speed0.9 mph4.6 mph (7:53 am)
Weather ElementAverage
Visibility8.7 mi
Wind DirectionNNE (32.2 °)

Weather ElementTotal
Precipitation---
Heating Degree Days30.5 (Base 65)
Averaged from 23 records on January 23, 2013
WEATHER CONDITIONS BREAKOUT
WIND DIRECTION BREAKOUT
WEATHER BY HOUR - JANUARY 23, 2013
[ °C ]   °F
Local TimeTemperatureDewpointHumidityBarometerVisibilityWind DirectionWind SpeedGust SpeedPrecipitationEventsConditions
1:53 AM30.0 °F16.0 °F56 %30.38 in10.0 miCalmClear
2:53 AM28.9 °F16.0 °F58 %30.38 in10.0 miSW (230°)3.5 mphClear
3:53 AM28.9 °F16.0 °F58 %30.38 in8.0 miCalmClear
4:53 AM27.0 °F16.0 °F63 %30.40 in6.0 miCalmHaze
5:53 AM28.0 °F16.0 °F61 %30.42 in10.0 miCalmClear
6:53 AM27.0 °F16.0 °F63 %30.44 in9.0 miCalmClear
7:53 AM27.0 °F16.0 °F63 %30.45 in6.0 miWSW (240°)4.6 mphHaze
8:53 AM32.0 °F18.0 °F56 %30.45 in10.0 miCalmClear
9:53 AM32.0 °F18.0 °F56 %30.46 in10.0 miCalmClear
10:53 AM36.0 °F19.0 °F50 %30.47 in10.0 miCalmClear
11:53 AM37.9 °F19.9 °F48 %30.45 in10.0 miCalmClear
12:53 PM39.0 °F18.0 °F43 %30.42 in10.0 miCalmClear
1:53 PM39.9 °F19.0 °F43 %30.40 in10.0 miNNE (30°)3.5 mphClear
2:53 PM42.1 °F19.0 °F40 %30.36 in10.0 miNE (40°)4.6 mphClear
3:53 PM42.1 °F18.0 °F38 %30.35 in10.0 miCalmClear
4:53 PM41.0 °F18.0 °F40 %30.37 in10.0 miCalmClear
5:53 PM39.9 °F19.0 °F43 %30.36 in10.0 miCalmClear
6:53 PM37.9 °F19.0 °F47 %30.38 in6.0 miCalmHaze
7:53 PM37.9 °F19.0 °F47 %30.37 in10.0 miCalmClear
8:53 PM37.9 °F19.9 °F48 %30.36 in8.0 miCalmClear
9:53 PM37.9 °F19.0 °F47 %30.37 in3.0 miCalmHaze
10:53 PM37.9 °F19.9 °F48 %30.35 in6.0 miCalmHaze
11:53 PM37.0 °F19.0 °F48 %30.35 in8.0 miSSW (200°)3.5 mphClear
Hourly data recorded from KPGA, located miles away from Kanab, Utah







STORIES FROM OUR PARTNERS